• In Netherlands
  • List of Countries
  • For 7 days
  • Water Temperature
  • Satellite Maps
  • Weather Map
  • Weather Widgets
  • user-avatar
    Login

    Hourly Weather Nesebyr

    Today, 19 January, Friday

    Time Temperature Precipitation Wind Pressure Humidity
    00:00 -2°C° 0 mm 7 mps 757 mmHg 77%
    01:00 -2°C° 0 mm 6 mps 758 mmHg 77%
    02:00 -1°C° 0 mm 5 mps 757 mmHg 73%
    03:00 -1°C° 0 mm 5 mps 757 mmHg 70%
    04:00 -1°C° 0 mm 4 mps 757 mmHg 66%
    05:00 -1°C° 0 mm 4 mps 757 mmHg 63%
    06:00 -1°C° 0 mm 4 mps 757 mmHg 60%
    07:00 0°C° 0 mm 4 mps 758 mmHg 58%
    08:00 0°C° 0 mm 4 mps 757 mmHg 52%
    09:00 +3°C° 0 mm 4 mps 757 mmHg 47%
    10:00 +5°C° 0 mm 4 mps 758 mmHg 42%
    11:00 +7°C° 0 mm 4 mps 758 mmHg 37%
    12:00 +8°C° 0 mm 4 mps 758 mmHg 39%
    13:00 +10°C° 0 mm 4 mps 758 mmHg 41%
    14:00 +10°C° 0 mm 4 mps 758 mmHg 43%
    15:00 +8°C° 0 mm 4 mps 758 mmHg 49%
    16:00 +7°C° 0 mm 4 mps 758 mmHg 55%
    17:00 +6°C° 0 mm 4 mps 758 mmHg 61%
    18:00 +5°C° 0 mm 4 mps 758 mmHg 64%
    19:00 +5°C° 0 mm 4 mps 758 mmHg 67%
    20:00 +4°C° 0 mm 4 mps 758 mmHg 70%
    21:00 +4°C° 0 mm 4 mps 758 mmHg 72%
    22:00 +4°C° 0 mm 4 mps 758 mmHg 74%
    23:00 +4°C° 0 mm 4 mps 758 mmHg 77%

    Tomorrow, 20 January, Saturday

    Time Temperature Precipitation Wind Pressure Humidity
    00:00 +4°C° 0 mm 4 mps 758 mmHg 78%
    01:00 +3°C° 0 mm 4 mps 758 mmHg 80%
    02:00 +3°C° 0 mm 4 mps 758 mmHg 82%
    03:00 +3°C° 0 mm 4 mps 758 mmHg 82%
    04:00 +3°C° 0 mm 4 mps 758 mmHg 83%
    05:00 +3°C° 0 mm 4 mps 758 mmHg 84%
    06:00 +3°C° 0 mm 4 mps 757 mmHg 84%
    07:00 +3°C° 0 mm 4 mps 757 mmHg 83%
    08:00 +3°C° 0 mm 4 mps 757 mmHg 83%
    09:00 +5°C° 0 mm 4 mps 757 mmHg 80%
    10:00 +6°C° 0 mm 4 mps 757 mmHg 77%
    11:00 +7°C° 0 mm 4 mps 757 mmHg 73%
    12:00 +8°C° 0 mm 4 mps 757 mmHg 76%
    13:00 +10°C° 0 mm 4 mps 756 mmHg 78%
    14:00 +10°C° 0 mm 4 mps 756 mmHg 80%
    15:00 +10°C° 0.1 mm 4 mps 755 mmHg 83%
    16:00 +10°C° 0.1 mm 4 mps 755 mmHg 86%
    17:00 +10°C° 0.1 mm 4 mps 755 mmHg 89%
    18:00 +8°C° 0.1 mm 4 mps 755 mmHg 90%
    19:00 +8°C° 0.1 mm 4 mps 754 mmHg 90%
    20:00 +8°C° 0.1 mm 4 mps 754 mmHg 90%
    21:00 +8°C° 0.1 mm 4 mps 754 mmHg 88%
    22:00 +7°C° 0.1 mm 5 mps 755 mmHg 86%
    23:00 +7°C° 0.1 mm 5 mps 755 mmHg 84%

    Day after tomorrow, 21 January, Sunday

    Time Temperature Precipitation Wind Pressure Humidity
    00:00 +6°C° 0.7 mm 4 mps 755 mmHg 85%
    01:00 +7°C° 0.7 mm 3 mps 755 mmHg 87%
    02:00 +6°C° 0.7 mm 2 mps 756 mmHg 89%
    03:00 +5°C° 0 mm 2 mps 756 mmHg 90%
    04:00 +5°C° 0 mm 2 mps 756 mmHg 90%
    05:00 +4°C° 0 mm 2 mps 757 mmHg 91%
    06:00 +4°C° 0 mm 2 mps 757 mmHg 90%
    07:00 +4°C° 0 mm 2 mps 757 mmHg 89%
    08:00 +4°C° 0 mm 2 mps 757 mmHg 88%
    09:00 +5°C° 0 mm 2 mps 757 mmHg 84%
    10:00 +6°C° 0 mm 2 mps 757 mmHg 81%
    11:00 +7°C° 0 mm 3 mps 757 mmHg 77%
    12:00 +7°C° 0 mm 3 mps 757 mmHg 79%
    13:00 +7°C° 0 mm 3 mps 756 mmHg 81%
    14:00 +6°C° 0 mm 4 mps 755 mmHg 84%
    15:00 +6°C° 0.1 mm 4 mps 755 mmHg 86%
    16:00 +7°C° 0.1 mm 3 mps 755 mmHg 89%
    17:00 +5°C° 0.1 mm 3 mps 754 mmHg 91%
    18:00 +5°C° 0.2 mm 3 mps 754 mmHg 93%
    19:00 +6°C° 0.2 mm 2 mps 754 mmHg 94%
    20:00 +6°C° 0.2 mm 2 mps 754 mmHg 95%
    21:00 +6°C° 0.2 mm 2 mps 754 mmHg 95%
    22:00 +6°C° 0.2 mm 2 mps 754 mmHg 96%
    23:00 +6°C° 0.2 mm 2 mps 753 mmHg 96%

    22 January, Monday

    Time Temperature Precipitation Wind Pressure Humidity
    00:00 +6°C° 0.2 mm 2 mps 753 mmHg 95%
    01:00 +5°C° 0.2 mm 3 mps 753 mmHg 94%
    02:00 +4°C° 0.2 mm 3 mps 753 mmHg 93%
    03:00 +4°C° 0.1 mm 4 mps 753 mmHg 91%
    04:00 +3°C° 0.1 mm 5 mps 753 mmHg 88%
    05:00 +2°C° 0.1 mm 6 mps 753 mmHg 85%
    06:00 +2°C° 0 mm 6 mps 753 mmHg 82%
    07:00 +1°C° 0 mm 6 mps 754 mmHg 79%
    08:00 0°C° 0 mm 7 mps 754 mmHg 76%
    09:00 +2°C° 0 mm 7 mps 755 mmHg 71%
    10:00 +1°C° 0 mm 8 mps 755 mmHg 67%
    11:00 +2°C° 0 mm 9 mps 755 mmHg 62%
    12:00 +2°C° 0 mm 9 mps 755 mmHg 63%
    13:00 +2°C° 0 mm 9 mps 755 mmHg 64%
    14:00 +2°C° 0 mm 9 mps 755 mmHg 64%
    15:00 +2°C° 0.2 mm 9 mps 756 mmHg 68%
    16:00 +1°C° 0.2 mm 9 mps 757 mmHg 72%
    17:00 0°C° 0.2 mm 9 mps 758 mmHg 76%
    18:00 0°C° 0.2 mm 8 mps 759 mmHg 78%
    19:00 0°C° 0.2 mm 8 mps 759 mmHg 79%
    20:00 -1°C° 0.2 mm 7 mps 760 mmHg 81%
    21:00 -2°C° 0 mm 7 mps 761 mmHg 82%
    22:00 -2°C° 0 mm 6 mps 762 mmHg 83%
    23:00 -3°C° 0 mm 6 mps 763 mmHg 83%

    23 January, Tuesday

    Time Temperature Precipitation Wind Pressure Humidity
    00:00 -2°C° 0 mm 5 mps 763 mmHg 82%
    01:00 -2°C° 0 mm 5 mps 763 mmHg 81%
    02:00 -4°C° 0 mm 5 mps 764 mmHg 80%
    03:00 -4°C° 0 mm 5 mps 764 mmHg 79%
    04:00 -4°C° 0 mm 5 mps 765 mmHg 79%
    05:00 -3°C° 0 mm 4 mps 765 mmHg 79%
    06:00 -3°C° 0 mm 4 mps 765 mmHg 78%
    07:00 -3°C° 0 mm 4 mps 766 mmHg 78%
    08:00 -2°C° 0 mm 3 mps 766 mmHg 78%
    09:00 0°C° 0 mm 3 mps 766 mmHg 71%
    10:00 +1°C° 0 mm 3 mps 767 mmHg 65%
    11:00 +2°C° 0 mm 3 mps 767 mmHg 59%
    12:00 +3°C° 0 mm 3 mps 767 mmHg 57%
    13:00 +3°C° 0 mm 3 mps 767 mmHg 55%
    14:00 +4°C° 0 mm 3 mps 767 mmHg 52%
    15:00 +3°C° 0 mm 3 mps 767 mmHg 57%
    16:00 +2°C° 0 mm 3 mps 767 mmHg 62%
    17:00 +1°C° 0 mm 3 mps 768 mmHg 68%
    18:00 +2°C° 0 mm 2 mps 768 mmHg 70%
    19:00 +1°C° 0 mm 2 mps 769 mmHg 72%
    20:00 +1°C° 0 mm 2 mps 769 mmHg 74%
    21:00 -1°C° 0 mm 2 mps 770 mmHg 74%
    22:00 -1°C° 0 mm 2 mps 770 mmHg 75%
    23:00 -1°C° 0 mm 3 mps 771 mmHg 76%

    24 January, Wednesday

    Time Temperature Precipitation Wind Pressure Humidity
    00:00 -1°C° 0 mm 2 mps 771 mmHg 76%
    01:00 -1°C° 0 mm 2 mps 771 mmHg 75%
    02:00 -1°C° 0 mm 2 mps 771 mmHg 75%
    03:00 -1°C° 0 mm 2 mps 771 mmHg 74%
    04:00 -2°C° 0 mm 3 mps 772 mmHg 73%
    05:00 -2°C° 0 mm 3 mps 772 mmHg 72%
    06:00 -2°C° 0 mm 3 mps 772 mmHg 71%
    07:00 -2°C° 0 mm 3 mps 773 mmHg 70%
    08:00 -2°C° 0 mm 2 mps 773 mmHg 69%
    09:00 -1°C° 0 mm 3 mps 773 mmHg 62%
    10:00 0°C° 0 mm 3 mps 773 mmHg 55%
    11:00 +2°C° 0 mm 3 mps 774 mmHg 49%
    12:00 +2°C° 0 mm 3 mps 773 mmHg 48%
    13:00 +3°C° 0 mm 3 mps 773 mmHg 47%
    14:00 +3°C° 0 mm 3 mps 773 mmHg 46%
    15:00 +2°C° 0 mm 3 mps 773 mmHg 51%
    16:00 +1°C° 0 mm 3 mps 773 mmHg 55%
    17:00 0°C° 0 mm 3 mps 773 mmHg 60%
    18:00 0°C° 0 mm 3 mps 773 mmHg 63%
    19:00 -1°C° 0 mm 2 mps 774 mmHg 65%
    20:00 -1°C° 0 mm 2 mps 774 mmHg 68%
    21:00 -1°C° 0 mm 2 mps 774 mmHg 69%
    22:00 -1°C° 0 mm 2 mps 774 mmHg 70%
    23:00 -1°C° 0 mm 2 mps 774 mmHg 70%
    Show more